This is the latest recevied weather packets stored in our database for station/object KN6KS. If no packets are shown the sender has not sent any weather packets the latest 1 day(s).
| Time | Temp. | Humidity | Pressure | Rain* | Wind** | Luminosity | Snow |
|---|---|---|---|---|---|---|---|
| 1778102234 | 26.67° C | 25% | 1015.5 hPa | 0 mm | - | 649 W/m² | - |
| 1778100111 | 26.11° C | 26% | 1015.7 hPa | 0 mm | - | 694 W/m² | - |
| 1778099506 | 25.56° C | 27% | 1015.7 hPa | 0 mm | - | 699 W/m² | - |
| 1778099204 | 26.11° C | 27% | 1015.9 hPa | 0 mm | - | 712 W/m² | - |
| 1778097990 | 26.11° C | 26% | 1016 hPa | 0 mm | - | 723 W/m² | - |
| 1778097080 | 25.56° C | 27% | 1015.9 hPa | 0 mm | - | 714 W/m² | - |
| 1778095261 | 25.56° C | 30% | 1016.2 hPa | 0 mm | - | 714 W/m² | - |
| 1778094351 | 23.89° C | 30% | 1016.3 hPa | 0 mm | - | 725 W/m² | - |
| 1778094048 | 23.89° C | 31% | 1016.2 hPa | 0 mm | - | 737 W/m² | - |
| 1778092532 | 23.33° C | 32% | 1016.7 hPa | 0 mm | - | 748 W/m² | - |
| 1778091018 | 22.22° C | 34% | 1016.7 hPa | 0 mm | - | 700 W/m² | - |
| 1778090411 | 22.22° C | 38% | 1016.7 hPa | 0 mm | - | 711 W/m² | - |
| 1778090108 | 21.67° C | 38% | 1016.9 hPa | 0 mm | - | 742 W/m² | - |
| 1778087684 | 19.44° C | 42% | 1016.8 hPa | 0 mm | - | 755 W/m² | - |
| 1778086770 | 19.44° C | 43% | 1017 hPa | 0 mm | - | 718 W/m² | - |
| 1778086469 | 18.89° C | 43% | 1017 hPa | 0 mm | - | 713 W/m² | - |
| 1778085861 | 18.33° C | 44% | 1017.1 hPa | 0 mm | - | 685 W/m² | - |
| 1778085554 | 18.33° C | 45% | 1017.1 hPa | 0 mm | - | 668 W/m² | - |
| 1778085254 | 19.44° C | 44% | 1017 hPa | 0 mm | - | 661 W/m² | - |
| 1778084647 | 18.89° C | 45% | 1017.1 hPa | 0 mm | - | 628 W/m² | - |
| 1778083734 | 18.89° C | 45% | 1017.1 hPa | 0 mm | - | 581 W/m² | - |
| 1778082825 | 17.22° C | 47% | 1017 hPa | 0 mm | - | 500 W/m² | - |
| 1778081400 | 16.11° C | 52% | 1017 hPa | 0 mm | - | 357 W/m² | - |
| 1778080492 | 15.56° C | 54% | 1017.1 hPa | 0 mm | - | 252 W/m² | - |
| 1778079885 | 15° C | 55% | 1017.1 hPa | 0 mm | - | 251 W/m² | - |
* Rain latest hour (hover to see other rain measurements)
** Current wind speed in m/s (hover to see current wind gust speed)